Tracking 28779 objects as of 14-Apr-2024
HD Live streaming from Space Station
objects crossing your sky now

METEOR M2-2

Track METEOR M2-2 now!
10-day predictions
METEOR M2-2 is classified as:


NORAD ID: 44387
Int'l Code: 2019-038A
Perigee: 817.9 km
Apogee: 820.9 km
Inclination: 98.8 °
Period: 101.1 minutes
Semi major axis: 7190 km
RCS: Unknown
Launch date: July 5, 2019
Source: Commonwealth of Independent States (former USSR) (CIS)
Launch site: VOSTOCHNY COSMODROME (VOSTO)

Uplink (MHz):
Downlink (MHz): 137.100/137.900
Beacon (MHz): 1700.000*
Mode: 72K QPSK AHRPT*
Call sign:
Status:

Your satellite tracking list
Your tracking list is empty




NASA's NSSDC Master Catalog

Two Line Element Set (TLE):
1 44387U 19038A   24105.20472042  .00000110  00000-0  67824-4 0  9993
2 44387  98.8217  74.1968 0002084 117.8820 242.2569 14.23869066248288
Source of the keplerian elements: AFSPC